Temperature
23 24 23 23 23 23 23 22 21 22 22 23 23 23 22 21 20 19 19 18 17 16 15 14 13 13 12 12 12 12 12 12 11 11 11 11 10 11 11 11 11 11 11 11
22 23 23 23 23 23 23 23 22 22 22 24 23 23 22 21 20 19 19 18 17 16 15 14 13 13 12 12 12 12 12 11 11 11 11 11 11 11 11 11 11 11 11 11
21 23 22 22 23 23 23 23 23 22 23 23 23 22 21 20 20 19 19 18 17 16 15 14 13 13 12 12 12 12 12 12 12 11 11 11 11 11 11 11 11 11 11 11
21 21 20 23 23 23 22 22 22 22 23 22 22 21 20 19 18 19 18 18 17 16 15 14 13 13 12 12 12 12 12 12 12 12 11 11 11 11 11 11 11 11 11 11
21 21 21 23 22 21 20 21 22 22 21 21 21 20 21 21 19 18 18 17 16 15 15 14 13 13 12 12 12 12 12 12 12 12 11 11 11 11 11 11 11 11 11 11
20 19 19 22 21 21 21 20 22 21 20 20 20 20 21 20 19 18 17 16 16 15 14 13 13 12 12 12 12 12 11 11 12 12 11 11 11 11 11 11 11 11 11 11
20 19 20 22 21 20 18 19 19 18 18 18 19 19 19 19 19 17 16 16 16 15 14 13 12 12 11 11 11 11 11 11 11 11 11 11 11 11 11 11 11 11 11 11
19 18 19 20 19 18 17 17 17 17 17 18 18 18 18 19 18 17 15 15 15 15 14 13 12 11 11 11 11 11 11 11 11 11 11 11 11 11 11 10 10 10 10 10
18 18 19 18 17 16 15 15 15 16 16 17 17 18 18 18 18 17 16 15 15 15 14 12 11 11 11 11 11 11 11 11 11 11 11 11 10 10 10 10 10 10 10 10
17 18 17 16 14 13 13 13 14 14 15 16 16 17 17 17 18 17 16 14 14 14 14 12 12 11 11 11 10 10 11 10 10 10 10 10 10 10 10 10 11 10 10 10
15 15 13 12 11 11 11 12 13 13 13 14 14 15 15 16 16 16 16 14 14 14 14 13 12 11 11 11 10 10 10 10 10 10 11 10 10 10 10 10 11 10 10 10
10 8 9 9 8 9 10 10 11 11 12 13 13 13 13 13 14 15 15 14 14 14 14 13 12 11 11 11 10 10 10 10 11 11 10 10 10 9 10 10 10 10 9 9
6 6 7 6 7 7 8 9 10 10 11 12 12 12 11 11 12 12 13 14 13 13 14 13 12 12 11 10 10 10 10 10 11 11 10 10 10 10 9 9 9 9 9 9
6 6 6 6 7 8 8 9 9 10 10 11 11 11 11 11 10 11 11 12 13 13 13 13 12 12 11 11 10 10 10 10 10 10 10 10 10 10 10 10 9 9 9 9
6 7 7 7 8 8 9 9 9 10 10 10 10 10 10 10 10 9 10 11 11 12 12 13 12 12 11 11 10 10 10 10 10 10 10 10 10 10 10 10 10 10 9 9
7 7 8 8 9 9 9 9 9 9 9 9 9 10 10 9 9 9 9 9 10 11 12 12 12 12 12 11 11 10 10 10 10 10 10 10 10 10 10 10 10 10 10 9
7 8 8 9 8 8 8 8 8 8 8 8 8 8 9 9 9 9 9 9 9 9 11 11 12 12 12 11 11 11 11 10 9 9 10 10 10 10 10 10 10 10 10 10
8 8 8 8 8 8 8 8 8 7 7 7 7 7 8 8 9 8 8 8 8 9 9 10 11 11 11 11 11 11 11 10 9 10 10 10 10 10 10 10 10 11 11 10
8 8 8 8 8 8 8 7 7 7 7 7 7 7 7 7 8 8 8 8 8 8 8 9 10 11 11 11 11 11 11 11 10 10 10 10 10 10 11 11 11 11 11 11
8 8 8 8 8 7 7 7 7 6 6 6 6 6 6 7 8 8 8 7 7 7 7 8 9 10 10 11 11 11 11 11 11 10 10 10 10 10 11 11 11 11 11 11
7 7 7 7 7 7 7 7 6 6 6 6 5 6 6 7 7 7 7 7 8 7 7 7 8 9 10 10 10 11 12 11 11 11 10 11 10 11 11 11 11 11 11 11
6 6 6 6 6 6 6 6 6 6 6 5 5 6 6 6 7 7 7 7 7 7 7 7 8 8 9 10 10 11 12 12 12 11 11 11 11 11 11 11 11 11 11 11
6 5 5 6 6 6 6 6 6 6 5 5 5 5 5 5 6 6 7 8 8 7 7 7 7 8 9 9 10 11 12 12 12 12 11 11 11 11 11 11 11 11 11 11
5 5 5 5 5 5 5 5 5 4 4 4 4 4 4 5 5 7 7 7 7 7 7 7 7 8 8 9 10 11 12 12 12 12 12 12 12 11 12 12 11 11 11 11
5 4 4 4 4 4 4 3 3 3 3 3 3 3 4 4 5 6 7 7 7 7 7 7 8 8 8 8 9 11 12 12 13 12 12 12 12 12 12 12 12 12 12 12
4 4 4 4 3 3 2 2 2 2 2 2 2 3 3 4 5 5 6 6 7 7 7 8 8 8 8 9 9 10 11 12 12 12 12 12 12 12 12 12 12 12 12 12
4 4 4 3 3 2 1 1 1 2 3 3 3 3 3 4 4 5 6 6 7 7 8 8 9 9 9 10 10 10 11 11 11 11 12 12 12 12 12 12 12 12 12 12
Wind_Speed
16 17 17 19 20 19 19 20 22 23 22 20 17 16 15 13 11 10 11 10 9 7 6 6 6 6 5 4 3 2 2 4 5 4 4 3 3 4 5 6 8 8 9 9
17 17 18 20 21 20 19 20 21 22 22 18 15 14 14 13 11 11 11 11 9 7 6 7 8 7 7 5 4 4 4 5 7 8 7 7 6 6 7 7 8 9 10 10
12 10 12 11 8 8 11 13 16 18 17 16 18 17 16 13 11 11 11 10 9 9 8 8 8 8 8 6 5 4 3 5 8 11 11 10 9 8 8 9 9 10 10 11
9 9 8 5 6 11 14 15 16 17 16 17 17 14 14 12 12 11 10 9 9 9 9 9 9 8 8 7 6 4 3 4 6 10 13 12 9 8 8 8 9 9 10 11
8 12 12 10 5 9 13 17 15 11 12 14 15 14 15 9 10 11 10 8 8 10 10 9 9 8 8 8 7 5 4 4 6 9 12 13 11 10 9 8 9 9 10 11
10 12 8 7 8 12 14 16 4 14 20 22 22 18 15 13 10 10 10 8 8 9 10 10 10 9 9 10 9 8 6 6 6 8 11 12 12 11 10 9 9 9 9 9
12 12 9 6 11 18 14 12 23 25 25 25 23 20 21 21 18 12 11 10 11 11 11 11 10 9 10 10 10 9 8 8 8 9 10 11 12 11 11 10 10 9 10 9
7 8 6 13 18 14 16 21 23 24 23 22 22 22 21 21 18 13 13 12 13 13 12 11 11 11 11 11 10 9 10 10 10 10 9 10 10 11 11 11 11 11 10 10
7 9 14 16 15 15 18 20 21 21 23 22 22 22 21 21 19 14 15 15 14 15 14 12 12 12 12 11 10 11 12 11 11 10 9 9 10 11 11 11 10 10 9 8
11 11 13 13 15 18 19 19 20 21 21 21 21 21 21 20 19 15 13 15 15 16 15 14 13 13 12 11 11 12 12 12 11 10 10 10 9 10 11 11 11 11 10 9
11 10 12 12 18 21 21 21 22 23 22 21 20 20 20 19 18 15 12 13 16 17 17 16 15 14 13 12 13 13 13 12 12 11 10 9 9 7 9 9 9 9 9 8
7 13 10 12 18 21 22 22 22 23 24 22 20 20 21 19 18 16 13 12 16 18 18 17 16 16 15 14 14 14 13 12 11 10 10 10 9 8 6 4 8 7 6 6
8 13 11 14 18 20 20 22 22 23 23 23 21 20 20 19 19 17 14 13 16 19 19 18 18 18 17 16 15 15 13 12 11 10 10 10 10 11 10 6 6 7 7 5
10 11 11 16 18 19 21 23 23 23 22 23 22 21 20 19 19 19 16 13 14 17 19 19 19 19 18 18 17 16 15 13 11 10 10 11 11 11 11 13 13 10 8 9
12 12 14 17 19 20 21 22 24 23 23 23 22 21 21 21 20 19 17 15 13 16 18 20 20 20 19 19 18 17 15 13 12 11 11 11 11 11 12 13 12 12 12 11
17 18 19 20 22 23 24 24 24 24 24 24 23 23 22 21 20 17 15 16 14 15 17 18 20 20 20 20 19 17 15 13 12 12 12 12 12 12 12 13 12 12 13 14
19 22 24 25 25 26 25 25 24 25 25 25 25 25 24 22 20 17 14 13 15 15 15 16 18 19 20 21 20 16 15 15 14 13 13 13 13 13 13 13 13 13 13 14
21 23 24 25 25 26 27 26 25 26 25 25 26 25 25 23 21 18 15 13 13 13 13 15 16 17 19 21 19 16 15 15 15 15 14 14 14 14 14 14 15 15 13 14
23 25 25 25 25 25 25 25 25 25 26 26 25 24 24 24 22 19 15 13 12 12 12 12 14 17 19 21 19 16 16 16 16 16 15 15 15 15 15 15 15 16 15 15
27 27 27 27 26 25 24 23 24 24 24 25 25 24 24 23 22 20 16 13 9 7 10 12 11 14 18 20 19 17 18 18 18 17 16 16 17 16 16 16 16 16 15 15
29 29 28 27 26 25 24 24 24 24 24 24 24 24 23 22 21 19 16 13 10 7 8 11 9 11 15 17 20 18 18 18 18 17 17 17 17 17 17 16 16 15 15 14
28 27 27 27 26 26 24 24 25 25 25 24 24 23 22 21 20 18 16 13 11 7 6 8 8 11 14 16 19 20 19 19 18 17 17 17 17 18 18 17 17 16 15 14
25 26 27 27 27 27 27 26 25 24 24 24 23 23 22 20 17 15 15 11 9 8 7 8 10 11 12 14 17 20 20 20 19 18 18 17 17 17 17 18 17 16 16 15
25 26 26 26 26 27 27 26 25 22 23 23 22 23 21 17 16 15 14 10 10 10 9 9 12 12 12 13 15 18 19 20 19 18 18 18 17 17 17 17 17 17 17 17
25 25 26 26 24 22 23 25 25 24 23 18 21 22 19 16 15 15 14 13 11 10 11 12 14 13 11 13 15 16 17 18 18 18 18 17 18 17 17 17 17 17 17 17
23 21 20 20 20 18 19 19 19 19 18 17 16 16 15 14 15 14 13 13 15 12 12 10 10 11 12 14 16 16 16 16 17 17 18 18 18 18 17 17 19 17 16 16
22 20 18 18 18 18 19 20 20 20 17 15 14 13 12 12 12 12 13 12 11 11 10 10 10 10 11 13 14 16 16 15 14 15 16 16 15 16 17 18 16 16 16 15
Wind_Direction
280 287 287 282 280 277 268 265 273 283 288 294 299 309 312 305 289 272 272 278 281 285 284 276 268 264 259 257 257 237 193 156 152 157 163 176 171 149 139 136 130 128 126 121
283 283 284 280 277 276 274 272 271 275 280 287 295 302 303 299 282 271 278 279 272 265 258 257 258 257 253 254 261 254 226 196 179 175 176 176 166 158 148 137 128 127 123 115
287 300 295 279 282 294 294 285 282 281 288 304 308 308 307 299 281 276 284 281 265 254 244 242 248 253 254 248 253 255 234 201 184 179 176 169 164 162 151 143 134 130 125 115
290 298 277 298 324 307 300 296 295 290 290 298 305 310 298 278 269 272 277 272 259 249 239 234 238 245 246 242 240 239 223 188 169 170 164 158 161 159 150 144 139 137 132 124
285 295 294 295 331 347 320 303 300 316 329 326 330 312 292 285 244 249 254 251 247 241 235 230 233 237 237 238 235 227 210 182 161 158 158 160 163 159 151 145 140 142 138 136
282 293 289 324 23 346 317 295 3 340 327 320 312 300 299 327 306 257 234 221 218 220 221 219 224 228 232 235 231 221 205 185 170 160 159 161 162 159 152 147 143 142 137 141
282 285 279 348 351 333 311 320 331 320 313 307 299 294 297 300 295 266 237 217 202 204 207 210 212 219 231 236 231 219 197 185 176 164 161 161 160 158 155 154 145 139 134 132
286 277 274 354 337 327 316 316 312 309 306 303 299 295 294 296 296 262 239 225 203 196 201 202 206 213 226 230 225 211 193 186 175 166 163 160 161 159 159 154 149 145 139 134
282 279 309 323 321 332 337 329 323 317 310 304 298 296 295 295 297 279 241 228 209 198 196 197 201 211 221 217 208 200 192 183 173 167 164 164 166 162 163 167 167 160 156 155
284 287 314 327 351 352 346 339 335 331 325 317 308 302 298 295 295 289 251 228 211 200 196 196 199 206 213 205 195 196 190 180 173 172 173 173 177 175 177 179 178 173 173 167
287 321 340 346 354 346 341 341 342 341 339 338 333 324 315 305 297 291 263 231 214 205 199 195 194 198 201 196 193 196 190 183 182 183 181 176 183 182 190 187 183 181 176 166
350 350 330 344 348 347 345 342 341 338 336 339 342 339 333 323 313 302 278 238 220 211 202 194 191 193 193 192 194 197 192 189 191 190 184 186 177 167 66 93 121 121 135 168
352 332 338 345 344 346 342 338 337 334 332 332 336 338 337 333 328 317 294 252 228 218 207 196 191 191 190 190 193 200 201 195 197 194 189 194 189 183 172 136 121 140 157 150
346 338 330 337 333 331 329 327 326 325 326 327 329 330 333 334 335 331 319 287 250 230 215 202 195 194 191 190 194 199 204 197 200 197 197 197 194 191 185 176 174 175 173 154
329 323 312 313 316 318 316 315 315 315 318 319 320 321 324 327 331 333 329 313 275 244 224 208 201 198 194 193 196 200 204 200 198 202 200 199 195 192 188 184 179 174 169 164
314 313 311 311 311 312 312 313 312 310 311 312 312 312 314 315 317 325 333 330 300 259 233 215 207 201 194 194 196 200 203 196 191 200 201 199 196 193 188 185 184 184 182 176
304 310 312 312 312 310 310 310 308 307 308 307 307 307 306 305 307 311 321 328 317 287 254 228 216 205 196 194 195 198 197 188 187 203 203 198 195 195 192 190 192 193 191 177
301 302 303 302 302 303 304 304 304 305 304 303 302 300 300 300 299 301 307 316 320 303 270 246 228 213 201 195 195 197 195 188 191 202 201 198 196 196 196 195 195 196 191 174
307 304 301 300 300 300 301 302 304 306 307 305 301 296 294 293 294 292 293 299 310 308 293 269 244 222 207 199 192 196 194 190 189 198 200 193 196 198 197 196 195 195 195 188
311 309 307 305 303 303 302 301 302 303 306 306 302 296 292 289 289 289 286 283 283 290 302 296 257 224 213 201 193 196 194 193 191 194 197 194 197 200 198 198 198 198 200 201
317 315 313 310 307 305 303 301 300 300 302 303 301 297 292 287 286 284 281 279 274 273 291 294 266 231 217 201 194 201 196 194 194 194 196 197 197 200 201 201 203 204 205 208
320 317 314 312 309 306 304 302 298 296 296 296 297 296 293 289 284 281 274 271 269 249 262 280 270 241 222 206 200 204 199 196 196 196 196 199 199 201 203 204 206 209 210 212
318 317 315 312 309 306 303 301 298 297 295 293 293 293 290 285 282 278 276 271 264 238 240 263 270 267 228 214 207 207 202 198 197 197 196 198 202 205 206 207 209 210 211 213
319 318 316 313 311 308 305 305 303 301 296 293 290 289 287 282 276 270 268 264 250 238 240 246 252 253 227 218 216 211 206 201 200 200 199 199 202 206 208 209 210 211 213 215
319 318 316 316 315 312 311 309 306 302 297 292 287 286 283 276 273 273 275 274 264 243 241 235 235 233 223 220 217 214 212 206 201 201 202 202 203 205 207 209 211 212 214 216
318 315 314 314 315 313 314 311 306 301 295 288 282 279 276 271 269 269 267 265 260 245 240 232 227 218 214 213 213 213 214 210 205 206 207 206 207 208 209 210 213 214 217 219
315 315 314 316 317 318 317 313 309 305 299 290 281 276 273 269 266 266 264 262 257 246 236 227 224 219 210 207 209 209 210 211 209 208 211 212 212 212 212 211 214 215 218 221
Height
1502 1499 1498 1498 1497 1495 1496 1496 1497 1490 1485 1480 1477 1477 1477 1476 1476 1476 1476 1476 1475 1474 1473 1472 1472 1471 1470 1469 1468 1467 1466 1465 1465 1465 1467 1470 1472 1473 1475 1476 1477 1478 1480 1481
1504 1497 1494 1494 1490 1488 1488 1486 1485 1483 1480 1474 1474 1474 1474 1473 1472 1472 1472 1472 1471 1471 1470 1470 1469 1469 1469 1467 1467 1466 1465 1464 1464 1465 1467 1470 1473 1475 1476 1477 1478 1480 1482 1483
1502 1493 1496 1493 1484 1483 1482 1478 1478 1478 1474 1471 1471 1471 1470 1469 1468 1468 1467 1467 1467 1467 1467 1466 1467 1466 1466 1465 1465 1464 1463 1463 1463 1464 1466 1470 1473 1475 1477 1479 1480 1482 1483 1485
1500 1500 1504 1485 1480 1481 1482 1479 1475 1472 1471 1471 1470 1469 1468 1465 1464 1463 1463 1463 1463 1463 1463 1463 1463 1463 1463 1463 1463 1462 1462 1462 1462 1463 1466 1469 1472 1475 1477 1479 1481 1483 1485 1486
1500 1498 1491 1481 1480 1484 1484 1480 1474 1472 1472 1471 1469 1467 1461 1458 1459 1459 1458 1458 1458 1458 1459 1459 1460 1460 1460 1460 1460 1460 1461 1461 1461 1462 1464 1467 1471 1473 1476 1479 1481 1484 1485 1487
1499 1505 1502 1484 1484 1486 1484 1478 1472 1475 1474 1472 1469 1463 1457 1457 1457 1456 1454 1452 1452 1453 1454 1454 1455 1456 1457 1457 1458 1458 1459 1459 1460 1461 1463 1466 1469 1472 1475 1478 1481 1483 1486 1488
1498 1498 1488 1482 1486 1486 1489 1483 1478 1476 1474 1471 1465 1461 1458 1456 1453 1452 1450 1448 1446 1447 1448 1449 1451 1452 1453 1454 1455 1455 1456 1457 1458 1460 1462 1464 1467 1470 1473 1477 1480 1482 1485 1487
1499 1503 1496 1486 1489 1491 1490 1485 1480 1474 1470 1465 1461 1456 1453 1450 1447 1445 1444 1443 1441 1441 1442 1444 1446 1447 1448 1449 1451 1452 1453 1455 1456 1458 1461 1463 1466 1468 1471 1475 1478 1481 1483 1486
1499 1498 1492 1492 1492 1490 1487 1482 1477 1471 1465 1460 1455 1450 1447 1444 1441 1439 1437 1436 1435 1435 1436 1438 1440 1442 1444 1445 1447 1448 1450 1452 1454 1456 1459 1461 1464 1467 1470 1473 1477 1479 1482 1484
1496 1491 1493 1492 1491 1490 1486 1482 1476 1470 1463 1456 1450 1445 1441 1438 1435 1433 1431 1429 1429 1429 1430 1432 1434 1437 1439 1441 1443 1445 1447 1449 1451 1454 1457 1459 1462 1465 1468 1471 1474 1477 1480 1482
1496 1496 1497 1494 1493 1490 1485 1479 1473 1468 1462 1455 1448 1442 1437 1432 1429 1426 1424 1423 1422 1422 1423 1425 1428 1431 1434 1437 1439 1442 1444 1446 1449 1452 1455 1456 1459 1462 1465 1468 1472 1475 1477 1479
1509 1510 1505 1500 1496 1490 1484 1478 1472 1466 1460 1454 1447 1441 1435 1429 1425 1421 1418 1416 1415 1415 1416 1419 1422 1425 1429 1432 1435 1438 1441 1443 1446 1449 1451 1454 1456 1459 1462 1465 1469 1472 1474 1477
1516 1511 1506 1501 1494 1488 1483 1478 1471 1465 1459 1452 1446 1440 1433 1427 1421 1416 1412 1409 1408 1409 1410 1412 1415 1419 1423 1426 1430 1433 1437 1439 1443 1445 1448 1451 1453 1456 1458 1462 1465 1468 1471 1474
1514 1509 1503 1498 1492 1486 1480 1474 1468 1461 1455 1449 1443 1437 1431 1425 1418 1412 1407 1404 1403 1404 1405 1407 1409 1413 1417 1421 1424 1428 1432 1435 1438 1441 1444 1447 1449 1452 1455 1457 1460 1464 1467 1470
1510 1506 1501 1494 1488 1481 1475 1469 1462 1455 1448 1442 1437 1432 1427 1422 1416 1409 1403 1399 1397 1397 1398 1400 1403 1406 1411 1415 1418 1422 1426 1430 1432 1436 1439 1442 1445 1448 1451 1454 1457 1461 1464 1467
1504 1499 1494 1488 1481 1474 1468 1462 1456 1449 1443 1436 1431 1426 1422 1418 1412 1406 1400 1394 1391 1390 1391 1393 1396 1399 1404 1408 1412 1416 1420 1423 1427 1430 1434 1437 1440 1443 1446 1450 1453 1457 1461 1464
1497 1490 1484 1478 1472 1467 1461 1455 1449 1443 1436 1430 1424 1420 1415 1410 1406 1401 1396 1390 1385 1383 1383 1385 1388 1393 1396 1400 1404 1409 1413 1416 1420 1424 1428 1431 1435 1438 1442 1446 1449 1453 1457 1460
1491 1485 1478 1472 1465 1458 1452 1447 1441 1435 1428 1422 1417 1412 1407 1403 1399 1394 1390 1385 1380 1376 1376 1378 1381 1385 1389 1392 1397 1402 1406 1410 1413 1418 1422 1426 1430 1434 1437 1441 1445 1449 1453 1456
1483 1476 1469 1463 1457 1450 1444 1438 1432 1426 1420 1414 1408 1403 1398 1395 1391 1387 1384 1379 1375 1370 1369 1370 1372 1377 1381 1385 1389 1394 1399 1403 1407 1412 1416 1420 1425 1428 1432 1436 1440 1444 1448 1451
1473 1466 1459 1453 1447 1442 1435 1429 1423 1417 1411 1405 1399 1394 1389 1385 1383 1380 1376 1373 1370 1366 1363 1362 1365 1368 1373 1378 1383 1388 1393 1397 1401 1406 1410 1414 1419 1423 1427 1430 1434 1438 1442 1446
1464 1457 1450 1444 1438 1432 1427 1421 1414 1408 1402 1397 1391 1385 1380 1376 1374 1371 1368 1365 1362 1360 1357 1356 1358 1361 1366 1370 1376 1382 1386 1390 1395 1399 1404 1408 1413 1417 1421 1425 1429 1432 1436 1440
1457 1450 1443 1436 1429 1423 1417 1411 1405 1398 1392 1387 1381 1376 1371 1367 1364 1362 1360 1358 1356 1354 1352 1350 1351 1355 1359 1364 1369 1375 1380 1384 1388 1393 1397 1402 1406 1411 1415 1419 1423 1427 1430 1433
1451 1444 1436 1429 1421 1414 1407 1401 1394 1388 1381 1376 1371 1366 1362 1358 1356 1354 1351 1350 1349 1347 1346 1345 1345 1348 1352 1357 1362 1367 1372 1377 1382 1386 1391 1395 1400 1404 1408 1412 1416 1420 1424 1427
1445 1438 1430 1422 1414 1405 1397 1390 1383 1377 1370 1364 1359 1355 1351 1348 1345 1344 1343 1342 1341 1341 1340 1339 1340 1342 1345 1350 1355 1360 1365 1370 1375 1379 1384 1389 1393 1397 1402 1406 1410 1413 1417 1420
1440 1431 1423 1415 1406 1397 1388 1379 1371 1363 1356 1350 1346 1342 1340 1338 1336 1335 1334 1334 1333 1333 1333 1333 1334 1336 1339 1343 1348 1353 1358 1362 1367 1372 1377 1382 1386 1390 1395 1399 1403 1407 1410 1413
1434 1426 1417 1409 1400 1391 1380 1370 1360 1350 1343 1336 1332 1329 1328 1327 1326 1326 1325 1325 1325 1326 1326 1327 1329 1331 1333 1337 1341 1346 1351 1355 1360 1366 1370 1375 1379 1384 1388 1392 1396 1400 1403 1406
1428 1420 1411 1401 1392 1382 1371 1360 1350 1339 1331 1325 1321 1319 1318 1318 1318 1317 1318 1318 1318 1319 1321 1322 1324 1326 1328 1331 1335 1339 1344 1348 1353 1358 1363 1368 1372 1377 1381 1385 1389 1393 1396 1400